Home   Weather   French Lick   Past weeks
Flag for USA

Past Weather in French Lick, Indiana, USA — Yesterday and Last 2 Weeks

Now
49 °F

Clear.


Feels Like: 45 °F
Forecast: 59 / 46 °F
Wind: 9 mph from Southwest

Location: Huntingburg Airport

Current Time: Oct 22, 2019 at 7:49:37 am

Latest Report: Oct 22, 2019 at 6:56 am


Visibility: 10 mi

Pressure: 29.82 "Hg

Humidity: 90%

Dew Point: 46 °F

Location of French LickLocation

Past Weather in French Lick — Graph

°F

French Lick Temperature Yesterday

Maximum temperature yesterday: 69 °F (at 2:56 pm)
Minimum temperature yesterday: 57 °F (at 2:56 am)
Average temperature yesterday: 63 °F

High & Low Weather Summary for the Past Weeks

 TemperatureHumidityPressure
High83 °F (Oct 10, 4:56 pm)100% (Oct 7, 6:56 am)30.24 "Hg (Oct 7, 6:56 am)
Low35 °F (Oct 12, 6:56 am)22% (Oct 14, 3:56 pm)29.63 "Hg (Oct 21, 3:56 pm)
Average57 °F76%30.00 "Hg
* Reported Oct 7 5:56 am — Oct 22 5:56 am, French Lick. Weather by CustomWeather, © 2019

Note: Actual official high and low records may vary slightly from our data, if they occured in-between our weather recording intervals... More about our weather records

Advertising

French Lick Weather History for the Previous 24 Hours

Scroll right to see more
 ConditionsComfort  
Time TempWeatherWind HumidityBarometerVisibility
5:56 am
Tue, Oct 22
52 °FClear.9 mph80%29.80 "Hg10 mi
4:56 am52 °FClear.9 mph93%29.79 "Hg10 mi
3:56 am54 °FClear.8 mph93%29.79 "Hg10 mi
2:56 am55 °FClear.8 mph96%29.79 "Hg10 mi
1:56 am55 °FClear.7 mph93%29.80 "Hg10 mi
12:56 am59 °FPassing clouds.13 mph93%29.82 "Hg10 mi
12:19 am59 °FPassing clouds.10 mph94%29.81 "Hg10 mi
11:56 pm
Mon, Oct 21
60 °FMostly cloudy.10 mph93%29.80 "Hg10 mi
10:56 pm61 °FClear.12 mph90%29.78 "Hg10 mi
9:56 pm62 °FPassing clouds.12 mph86%29.75 "Hg10 mi
8:56 pm63 °FPassing clouds.16 mph84%29.74 "Hg10 mi
7:56 pm65 °FPartly cloudy.17 mph81%29.72 "Hg10 mi
7:29 pm64 °FPassing clouds.13 mph83%29.72 "Hg10 mi
7:21 pm64 °FPartly cloudy.17 mph83%29.72 "Hg10 mi
6:56 pm66 °FMostly cloudy.14 mph81%29.70 "Hg10 mi
5:56 pm66 °FMostly cloudy.12 mph81%29.69 "Hg10 mi
4:56 pm67 °FPartly sunny.12 mph76%29.69 "Hg10 mi
3:56 pm68 °FLight rain. Overcast.17 mph76%29.63 "Hg10 mi
2:56 pm69 °FBroken clouds.14 mph81%29.65 "Hg10 mi
1:56 pm68 °FLight rain. Mostly cloudy.13 mph87%29.66 "Hg10 mi
12:56 pm68 °FPartly sunny.16 mph90%29.68 "Hg10 mi
12:18 pm64 °FBroken clouds.9 mph100%29.68 "Hg10 mi
11:56 am63 °FLight rain. Overcast.12 mph100%29.69 "Hg9 mi
11:10 am63 °FLight rain. Mostly cloudy.13 mph100%29.71 "Hg10 mi
10:56 am63 °FThunderstorms. Mostly cloudy.7 mph100%29.72 "Hg7 mi
10:29 am63 °FRain. Fog.12 mph100%29.73 "Hg5 mi
9:56 am61 °FThunderstorms. Fog.7 mph100%29.72 "Hg4 mi
9:39 am61 °FThunderstorms. Fog.8 mph100%29.73 "Hg2 mi
9:24 am61 °FStrong thunderstorms. Fog.6 mph100%29.73 "Hg2 mi
9:14 am61 °FStrong thunderstorms. Fog.5 mph100%29.72 "Hg2 mi
9:02 am61 °FStrong thunderstorms. Fog.No wind100%29.75 "Hg2 mi
8:29 am63 °FThundershowers. Fog.15 mph88%29.68 "Hg5 mi
7:56 am61 °FMostly cloudy.18 mph93%29.67 "Hg10 mi
7:20 am61 °FThundershowers. Overcast.13 mph88%29.73 "Hg10 mi
Weather by CustomWeather, © 2019

See weather overview